{"data":{"norad_id":63018,"intl_designator":"2025-032P","name":"STARLINK-32870","alt_names":[],"object_type":"PAYLOAD","status":"ACTIVE","operator":null,"country":"US","launch_date":"2025-02-15","launch_site_code":"AFETR","launch_vehicle":null,"mission":null,"orbit_class":"UNKNOWN","rcs_meters":null,"size_class":null,"mass_kg":null,"dimensions":null,"purposes":["comms"],"wikipedia_slug":null,"has_3d_model":false,"image_url":null,"decayed_at":null,"tle_current":{"epoch":"2026-09-21T10:05:38.293440Z","epoch_age_seconds":85810,"freshness":"FRESH","line1":"1 63018U 25032P   26264.42058210  .00007946  00000+0  29785-3 0  9991","line2":"2 63018  43.0005 310.7393 0001081 268.0118  92.0610 15.27592306 90551","mean_motion":15.27592306,"eccentricity":0.0001081,"inclination_deg":43.0005,"raan_deg":310.7393,"arg_perigee_deg":268.0118,"mean_anomaly_deg":92.061,"bstar":0.00029785,"rev_number":9055,"period_min":94.265989318226,"perigee_km":482.27055746229,"apogee_km":483.75393792964,"semimajor_km":6861.149247696,"source":"CELESTRAK","updated_at":"2026-09-22T09:00:49.741358Z"}}}